sat.trackr.live / text

‹ back to catalog

STARLINK-4421

NORAD 53488 · 2022-099Z

PAYLOAD ACTIVE UNKNOWN

§ Identity

Operator
Country
US
Launch date
2022-08-12
Launch site
AFWTR
Launch vehicle
Mass (kg)
RCS (m²)

Purposes: comms

External: N2YO · Heavens-Above · Gunter

§ Orbital elements

Epoch: 2026-09-20T02:53:55.282272Z

Period
93.91 min
Inclination
97.2859°
Eccentricity
0.0001020
Mean motion
15.33438930 rev/d
Perigee alt
464.9 km
Apogee alt
466.3 km
Semi-major
6,843.7 km
B*
-1.4934e-5
RAAN
20.8315°
Arg perigee
87.6178°
Mean anomaly
272.5181°
Rev number
22,549

§ Raw data

STARLINK-44211 53488U 22099Z   26263.12077873 -.00000557  00000+0 -14934-4 0  99972 53488  97.2859  20.8315 0001020  87.6178 272.5181 15.33438930225496

JSON: /api/v1/satellites/53488 · /tle

For live sub-satellite position, see the globe view (requires WebGL).

§ Visibility from observer

Set your observer location to see the next 7 days of passes ≥ 10°. The values pass through the URL so the page stays shareable.

No JS? Fill the form by hand. The geolocation button needs JavaScript.